timestamp,wind_dir_avg,wind_spd_avg,wind_spd_max_dir,wind_spd_gust,battery_voltage,lat,long
2023-03-20 00:04:00+00:00,244.0,7.73,248.0,9.99,12.33,47.59359,-54.27349
2023-03-20 00:14:00+00:00,254.0,11.91,258.0,18.07,12.25,47.59359,-54.27349
2023-03-20 00:24:00+00:00,254.0,8.25,249.0,9.71,12.25,47.59359,-54.27349
2023-03-20 00:34:00+00:00,248.0,8.44,245.0,9.64,12.25,47.59359,-54.27349
2023-03-20 00:44:00+00:00,236.0,7.95,237.0,10.11,12.25,47.59359,-54.27349
2023-03-20 00:54:00+00:00,246.0,8.67,250.0,10.92,12.25,47.59359,-54.27349
2023-03-20 01:04:00+00:00,239.0,9.04,239.0,10.17,12.25,47.59359,-54.27349
2023-03-20 01:14:00+00:00,229.0,8.33,242.0,11.15,12.25,47.59359,-54.27349
2023-03-20 01:24:00+00:00,234.0,9.16,242.0,12.58,12.25,47.59359,-54.27349
2023-03-20 01:34:00+00:00,236.0,9.19,247.0,13.0,12.25,47.59359,-54.27349
2023-03-20 01:44:00+00:00,228.0,8.82,236.0,10.76,12.25,47.59359,-54.27349
2023-03-20 01:54:00+00:00,233.0,9.31,229.0,10.5,12.25,47.59359,-54.27349
2023-03-20 02:04:00+00:00,233.0,9.57,236.0,11.06,12.25,47.59359,-54.27349
2023-03-20 02:14:00+00:00,235.0,9.35,237.0,10.9,12.17,47.59359,-54.27349
2023-03-20 02:24:00+00:00,235.0,9.51,237.0,11.22,12.17,47.59359,-54.27349
2023-03-20 02:34:00+00:00,227.0,9.75,224.0,11.14,12.17,47.59359,-54.27349
2023-03-20 02:44:00+00:00,234.0,9.28,243.0,10.54,12.17,47.59359,-54.27349
2023-03-20 02:54:00+00:00,239.0,9.76,240.0,11.07,12.17,47.59359,-54.27349
2023-03-20 03:04:00+00:00,228.0,8.4,241.0,11.23,12.17,47.59359,-54.27349
2023-03-20 03:14:00+00:00,225.0,10.09,235.0,11.49,12.17,47.59359,-54.27349
2023-03-20 03:24:00+00:00,228.0,8.56,239.0,11.27,12.17,47.59359,-54.27349
2023-03-20 03:34:00+00:00,218.0,7.18,233.0,7.95,12.17,47.59359,-54.27349
2023-03-20 03:44:00+00:00,217.0,8.16,227.0,10.11,12.17,47.59359,-54.27349
2023-03-20 03:54:00+00:00,222.0,10.57,218.0,12.43,12.17,47.59359,-54.27349
2023-03-20 04:04:00+00:00,230.0,9.78,223.0,11.34,12.17,47.59359,-54.27349
2023-03-20 04:14:00+00:00,228.0,10.13,228.0,11.06,12.17,47.59359,-54.27349
2023-03-20 04:24:00+00:00,219.0,10.95,222.0,12.16,12.17,47.59359,-54.27349
2023-03-20 04:34:00+00:00,219.0,10.96,216.0,12.61,12.17,47.59359,-54.27349
2023-03-20 04:44:00+00:00,219.0,10.99,220.0,11.96,12.17,47.59359,-54.27349
2023-03-20 04:54:00+00:00,218.0,11.09,215.0,12.71,12.17,47.59359,-54.27349
2023-03-20 05:04:00+00:00,221.0,11.22,237.0,14.98,12.17,47.59359,-54.27349
2023-03-20 05:14:00+00:00,218.0,11.33,209.0,12.8,12.17,47.59359,-54.27349
2023-03-20 05:24:00+00:00,224.0,13.98,230.0,18.94,12.17,47.59359,-54.27349
2023-03-20 05:34:00+00:00,224.0,10.19,224.0,12.21,12.17,47.59359,-54.27349
2023-03-20 05:44:00+00:00,218.0,11.31,232.0,14.38,12.17,47.59359,-54.27349
2023-03-20 05:54:00+00:00,219.0,11.9,229.0,15.0,12.17,47.59359,-54.27349
2023-03-20 06:04:00+00:00,223.0,13.99,234.0,19.7,12.17,47.59359,-54.27349
2023-03-20 06:14:00+00:00,228.0,13.79,233.0,17.8,12.09,47.59359,-54.27349
2023-03-20 06:24:00+00:00,228.0,14.63,236.0,19.23,12.09,47.59359,-54.27349
2023-03-20 06:34:00+00:00,231.0,15.34,235.0,19.49,12.09,47.59359,-54.27349
2023-03-20 06:44:00+00:00,238.0,15.5,245.0,19.39,12.09,47.59359,-54.27349
2023-03-20 06:54:00+00:00,249.0,14.94,249.0,18.98,12.09,47.59359,-54.27349
2023-03-20 07:04:00+00:00,250.0,13.58,255.0,17.87,12.09,47.59359,-54.27349
2023-03-20 07:14:00+00:00,246.0,14.38,254.0,18.61,12.09,47.59359,-54.27349
2023-03-20 07:24:00+00:00,263.0,15.93,265.0,17.9,12.09,47.59359,-54.27349
2023-03-20 07:34:00+00:00,272.0,14.19,277.0,18.68,12.09,47.59359,-54.27349
2023-03-20 07:44:00+00:00,270.0,14.64,272.0,18.24,12.09,47.59359,-54.27349
2023-03-20 07:54:00+00:00,267.0,12.28,278.0,17.46,12.09,47.59359,-54.27349
2023-03-20 08:04:00+00:00,264.0,12.86,269.0,16.78,12.09,47.59359,-54.27349
2023-03-20 08:14:00+00:00,254.0,13.04,265.0,16.18,12.09,47.59359,-54.27349
2023-03-20 08:24:00+00:00,254.0,14.45,259.0,19.03,12.09,47.59359,-54.27349
2023-03-20 08:34:00+00:00,247.0,15.5,248.0,18.12,12.09,47.59359,-54.27349
2023-03-20 08:44:00+00:00,251.0,14.26,254.0,17.58,12.09,47.59359,-54.27349
2023-03-20 08:54:00+00:00,248.0,12.57,250.0,14.31,12.09,47.59359,-54.27349
2023-03-20 09:04:00+00:00,254.0,14.28,258.0,16.23,12.09,47.59359,-54.27349
2023-03-20 09:14:00+00:00,255.0,12.33,251.0,13.62,12.09,47.59359,-54.27349
2023-03-20 09:24:00+00:00,258.0,13.53,265.0,15.85,12.09,47.59359,-54.27349
2023-03-20 09:34:00+00:00,248.0,14.11,252.0,18.46,12.09,47.59359,-54.27349
2023-03-20 09:44:00+00:00,254.0,13.39,252.0,16.57,12.09,47.59359,-54.27349
2023-03-20 09:54:00+00:00,251.0,13.0,246.0,17.42,12.09,47.59359,-54.27349
2023-03-20 10:04:00+00:00,253.0,15.67,253.0,19.4,12.09,47.59359,-54.27349
2023-03-20 10:14:00+00:00,248.0,14.37,254.0,17.41,12.09,47.59359,-54.27349
2023-03-20 10:24:00+00:00,247.0,14.1,254.0,16.65,12.09,47.59359,-54.27349
2023-03-20 10:34:00+00:00,251.0,14.82,255.0,18.04,12.09,47.59359,-54.27349
2023-03-20 10:44:00+00:00,250.0,15.25,250.0,17.89,12.09,47.59359,-54.27349
2023-03-20 10:54:00+00:00,257.0,16.15,262.0,20.43,12.09,47.59359,-54.27349
2023-03-20 11:04:00+00:00,254.0,17.32,252.0,21.12,12.09,47.59359,-54.27349
2023-03-20 11:14:00+00:00,264.0,16.87,271.0,19.83,13.44,47.59359,-54.27349
2023-03-20 11:24:00+00:00,249.0,16.22,246.0,21.09,13.44,47.59359,-54.27349
2023-03-20 11:34:00+00:00,252.0,15.0,253.0,17.48,13.44,47.59359,-54.27349
2023-03-20 11:44:00+00:00,247.0,18.55,244.0,22.84,13.44,47.59359,-54.27349
2023-03-20 11:54:00+00:00,246.0,17.36,243.0,21.48,13.44,47.59359,-54.27349
2023-03-20 12:04:00+00:00,255.0,16.1,258.0,18.29,13.44,47.59359,-54.27349
2023-03-20 12:14:00+00:00,251.0,17.26,251.0,19.74,13.44,47.59359,-54.27349
2023-03-20 12:24:00+00:00,261.0,19.0,257.0,21.73,13.44,47.59359,-54.27349
2023-03-20 12:34:00+00:00,258.0,19.54,260.0,24.58,13.44,47.59359,-54.27349
2023-03-20 12:44:00+00:00,254.0,16.71,260.0,19.37,13.44,47.59359,-54.27349
2023-03-20 12:54:00+00:00,243.0,17.04,248.0,20.91,13.44,47.59359,-54.27349
2023-03-20 13:04:00+00:00,250.0,16.55,251.0,19.75,13.44,47.59359,-54.27349
2023-03-20 13:14:01+00:00,259.0,19.78,263.0,23.01,13.76,47.59359,-54.27349
2023-03-20 13:24:01+00:00,254.0,17.32,252.0,21.12,13.76,47.59359,-54.27349
2023-03-20 13:34:01+00:00,253.0,18.39,246.0,21.02,13.76,47.59359,-54.27349
2023-03-20 13:44:01+00:00,256.0,19.11,255.0,21.73,13.76,47.59359,-54.27349
2023-03-20 13:54:01+00:00,257.0,19.19,253.0,22.13,13.76,47.59359,-54.27349
2023-03-20 14:04:01+00:00,252.0,17.91,259.0,26.57,13.76,47.59359,-54.27349
2023-03-20 14:14:00+00:00,256.0,20.86,256.0,24.95,14.4,47.59359,-54.27349
2023-03-20 14:24:00+00:00,257.0,20.38,263.0,27.18,14.4,47.59359,-54.27349
2023-03-20 14:34:00+00:00,257.0,19.13,261.0,22.72,14.4,47.59359,-54.27349
2023-03-20 14:44:00+00:00,258.0,18.48,263.0,21.6,14.4,47.59359,-54.27349
2023-03-20 14:54:00+00:00,250.0,18.75,247.0,21.03,14.4,47.59359,-54.27349
2023-03-20 15:04:00+00:00,264.0,18.94,266.0,21.13,14.4,47.59359,-54.27349
2023-03-20 15:14:00+00:00,256.0,20.7,258.0,28.6,14.72,47.59359,-54.27349
2023-03-20 15:24:00+00:00,256.0,20.06,253.0,23.05,14.72,47.59359,-54.27349
2023-03-20 15:34:00+00:00,254.0,17.95,247.0,22.1,14.72,47.59359,-54.27349
2023-03-20 15:44:00+00:00,262.0,19.86,262.0,21.54,14.72,47.59359,-54.27349
2023-03-20 15:54:00+00:00,261.0,20.79,267.0,30.05,14.72,47.59359,-54.27349
2023-03-20 16:04:00+00:00,262.0,18.07,266.0,21.37,14.72,47.59359,-54.27349
2023-03-20 16:14:00+00:00,255.0,18.98,256.0,21.39,13.76,47.59359,-54.27349
2023-03-20 16:24:00+00:00,261.0,18.77,261.0,21.15,13.76,47.59359,-54.27349
2023-03-20 16:34:00+00:00,268.0,22.4,271.0,30.03,13.76,47.59359,-54.27349
2023-03-20 16:44:00+00:00,259.0,18.44,255.0,25.39,13.76,47.59359,-54.27349
2023-03-20 16:54:00+00:00,259.0,19.13,274.0,21.41,13.76,47.59359,-54.27349
2023-03-20 17:04:00+00:00,257.0,18.9,261.0,21.39,13.76,47.59359,-54.27349
2023-03-20 17:14:00+00:00,263.0,17.64,265.0,21.1,13.68,47.59359,-54.27349
2023-03-20 17:24:00+00:00,260.0,20.13,261.0,21.35,13.68,47.59359,-54.27349
2023-03-20 17:34:00+00:00,257.0,19.5,262.0,21.42,13.68,47.59359,-54.27349
2023-03-20 17:44:00+00:00,262.0,25.86,270.0,30.78,13.68,47.59359,-54.27349
2023-03-20 17:54:00+00:00,262.0,18.8,259.0,21.6,13.68,47.59359,-54.27349
2023-03-20 18:04:00+00:00,252.0,21.68,254.0,28.67,13.68,47.59359,-54.27349
2023-03-20 18:14:00+00:00,261.0,19.79,271.0,22.41,13.53,47.59359,-54.27349
2023-03-20 18:24:00+00:00,261.0,18.62,269.0,21.25,13.53,47.59359,-54.27349
2023-03-20 18:34:00+00:00,262.0,20.99,266.0,26.8,13.53,47.59359,-54.27349
2023-03-20 18:44:00+00:00,258.0,21.78,261.0,30.04,13.53,47.59359,-54.27349
2023-03-20 18:54:00+00:00,270.0,19.81,284.0,22.85,13.53,47.59359,-54.27349
2023-03-20 19:04:00+00:00,265.0,20.04,275.0,23.6,13.53,47.59359,-54.27349
2023-03-20 19:14:00+00:00,259.0,19.35,257.0,21.3,13.53,47.59359,-54.27349
2023-03-20 19:24:00+00:00,260.0,22.31,261.0,29.0,13.53,47.59359,-54.27349
2023-03-20 19:34:00+00:00,269.0,18.9,281.0,22.18,13.53,47.59359,-54.27349
2023-03-20 19:44:00+00:00,262.0,18.5,264.0,21.49,13.53,47.59359,-54.27349
2023-03-20 19:54:00+00:00,264.0,21.82,262.0,29.56,13.53,47.59359,-54.27349
2023-03-20 20:04:00+00:00,270.0,21.43,276.0,27.2,13.53,47.59359,-54.27349
2023-03-20 20:14:00+00:00,266.0,18.4,275.0,21.55,13.6,47.59359,-54.27349
2023-03-20 20:24:00+00:00,263.0,20.97,257.0,29.21,13.6,47.59359,-54.27349
2023-03-20 20:34:00+00:00,263.0,22.12,266.0,29.54,13.6,47.59359,-54.27349
2023-03-20 20:44:00+00:00,270.0,19.52,270.0,21.9,13.6,47.59359,-54.27349
2023-03-20 20:54:00+00:00,265.0,22.08,271.0,29.86,13.6,47.59359,-54.27349
2023-03-20 21:04:00+00:00,266.0,21.72,263.0,27.94,13.6,47.59359,-54.27349
2023-03-20 21:14:00+00:00,266.0,20.25,265.0,25.65,13.29,47.59359,-54.27349
2023-03-20 21:24:00+00:00,265.0,21.43,267.0,30.39,13.29,47.59359,-54.27349
2023-03-20 21:34:00+00:00,264.0,20.65,257.0,27.05,13.29,47.59359,-54.27349
2023-03-20 21:44:00+00:00,269.0,20.73,269.0,27.33,13.29,47.59359,-54.27349
2023-03-20 21:54:00+00:00,260.0,18.91,263.0,21.06,13.29,47.59359,-54.27349
2023-03-20 22:04:00+00:00,262.0,19.67,280.0,29.56,13.29,47.59359,-54.27349
2023-03-20 22:14:00+00:00,258.0,19.62,257.0,22.52,12.65,47.59359,-54.27349
2023-03-20 22:24:00+00:00,257.0,18.79,256.0,23.18,12.65,47.59359,-54.27349
2023-03-20 22:34:00+00:00,261.0,19.92,262.0,24.47,12.65,47.59359,-54.27349
2023-03-20 22:44:00+00:00,262.0,20.97,260.0,28.44,12.65,47.59359,-54.27349
2023-03-20 22:54:00+00:00,265.0,21.0,258.0,28.45,12.65,47.59359,-54.27349
2023-03-20 23:04:00+00:00,261.0,20.66,266.0,25.87,12.65,47.59359,-54.27349
2023-03-20 23:14:01+00:00,261.0,18.77,256.0,25.41,12.33,47.59359,-54.27349
2023-03-20 23:24:01+00:00,263.0,19.02,267.0,21.18,12.33,47.59359,-54.27349
2023-03-20 23:34:01+00:00,261.0,18.61,265.0,21.25,12.33,47.59359,-54.27349
2023-03-20 23:44:01+00:00,260.0,18.77,263.0,21.01,12.33,47.59359,-54.27349
2023-03-20 23:54:01+00:00,266.0,18.91,259.0,23.05,12.33,47.59359,-54.27349
